User: anonymous   Login
Location: Unspecified
(0.0000°N, 0.0000°E)
Time: 01:18:45
(UTC+02:00)
Language:

Meteor PRIRODA - Orbit

View from above orbital plane
View from above orbital plane
View from above satellite
View from above satellite

Ground track
Ground track

The orbit data is extracted from the following two-line orbital elements,

1 12585U 81065A   18109.62330105  .00000625  00000-0  31382-4 0  9994
2 12585  97.4689  90.3224 0015953  53.0753 307.1941 15.20858739  8845
Epoch (UTC): 19 April 2018 14:57:33
Eccentricity: 0.0015953
inclination: 97.4689°
perigee height: 492 km
apogee height: 514 km
right ascension of ascending node: 90.3224°
argument of perigee: 53.0753°
revolutions per day: 15.20858739
mean anomaly at epoch: 307.1941°
orbit number at epoch: 884

The dashed part of the orbit path shows where the satellite is in the earth's shadow,  

DLR